PBO Station Position Time Series. Reference Frame : NAM14
Format Version,1.1.0
4-character ID,P544
Station name,TwisselmanCS2005
Begin Date, 2005-12-16
End Date, 2019-10-07
Release Date, 2019-10-08
Reference position, 35.7312679932 North Latitude, -119.7380352864 East Longitude, 33.62623 meters elevation,
Date, North (mm), East (mm), Vertical (mm), North Std. Deviation (mm), East Std. Deviation (mm),              Vertical Std. Deviation (mm), Quality,
2005-12-16,0.00, 0.00, 0.00, 2.00, 1.61, 7.38, repro,
2005-12-17,-0.38, -1.12, -0.39, 2.10, 1.74, 7.73, repro,
2005-12-18,0.82, 0.85, -5.22, 2.04, 1.77, 7.57, repro,
2005-12-19,0.62, -1.44, -0.47, 2.17, 1.85, 7.85, repro,
2005-12-20,0.81, 1.54, -0.00, 2.08, 1.81, 7.69, repro,
2005-12-21,0.84, 0.76, -0.71, 2.04, 1.75, 7.56, repro,
2005-12-22,1.09, 0.34, 0.55, 2.05, 1.79, 7.64, repro,
2005-12-23,0.16, -0.02, 1.18, 2.11, 1.75, 7.71, repro,
2005-12-24,0.42, 0.34, 1.12, 2.29, 1.93, 8.41, repro,
2005-12-25,-1.16, -0.02, 9.92, 2.06, 1.71, 7.50, repro,
2005-12-26,1.25, -0.62, -2.70, 2.12, 1.72, 7.71, repro,
2005-12-27,0.42, -0.16, 0.33, 2.12, 1.76, 7.86, repro,
2005-12-28,-0.73, 1.57, 0.98, 2.05, 1.68, 7.50, repro,
2005-12-29,-0.27, 1.09, -0.80, 2.23, 1.86, 8.22, repro,
2005-12-30,0.32, 0.64, 4.53, 2.24, 1.86, 8.17, repro,
2005-12-31,1.42, -1.12, 1.51, 2.16, 1.78, 7.89, repro,
2006-01-01,0.58, -0.16, -1.92, 2.15, 1.77, 7.86, repro,
2006-01-02,0.63, -0.02, 11.31, 2.09, 1.74, 7.59, repro,
2006-01-03,1.93, 0.45, -10.07, 2.31, 2.04, 8.52, repro,
2006-01-04,1.54, 1.70, -11.88, 2.23, 1.89, 8.09, repro,
2006-01-05,0.88, 1.04, -8.36, 2.19, 1.83, 8.01, repro,
2006-01-06,0.83, 0.12, -2.87, 2.25, 1.94, 8.45, repro,
2006-01-07,2.82, -0.25, -3.20, 2.08, 1.73, 7.57, repro,
2006-01-08,1.47, 0.46, 1.10, 2.17, 1.82, 7.95, repro,
2006-01-09,1.00, 0.49, -4.97, 2.17, 1.82, 7.99, repro,
2006-01-10,1.48, -0.08, -4.58, 2.19, 1.82, 8.00, repro,
2006-01-11,2.21, 1.56, 0.83, 2.18, 1.82, 8.02, repro,
2006-01-12,0.59, 0.51, 1.65, 2.07, 1.72, 7.54, repro,
2006-01-13,0.21, 2.51, 1.80, 2.29, 1.99, 8.62, repro,
2006-01-14,1.32, 0.10, 4.79, 2.06, 1.67, 7.51, repro,
2006-01-15,0.09, 0.11, -0.57, 2.03, 1.66, 7.44, repro,
2006-01-16,2.45, -0.04, -0.26, 2.16, 1.84, 7.83, repro,
2006-01-17,0.10, 0.37, -1.81, 2.11, 1.77, 7.64, repro,
2006-01-18,1.86, 0.98, 4.82, 2.03, 1.66, 7.44, repro,
2006-01-19,0.74, 0.12, 7.35, 2.09, 1.65, 7.64, repro,
2006-01-20,0.38, -1.04, -7.81, 2.08, 1.69, 7.74, repro,
2006-01-21,1.23, 0.12, -3.12, 2.06, 1.67, 7.49, repro,
2006-01-22,1.06, 0.08, -5.46, 2.03, 1.61, 7.30, repro,
2006-01-23,1.11, -0.38, -0.44, 2.01, 1.60, 7.26, repro,
2006-01-24,0.63, 0.72, -2.01, 2.08, 1.66, 7.58, repro,
2006-01-25,-0.32, -0.64, -1.46, 1.96, 1.57, 7.20, repro,
2006-01-26,0.70, 0.06, -3.97, 1.95, 1.58, 7.17, repro,
2006-01-27,1.58, -0.14, -5.84, 1.96, 1.58, 7.19, repro,
2006-01-28,1.08, -0.15, -6.21, 1.98, 1.58, 7.19, repro,
2006-01-29,0.91, -0.30, -7.00, 1.96, 1.57, 7.18, repro,
2006-01-30,0.32, -0.31, -9.13, 1.99, 1.58, 7.26, repro,
2006-01-31,0.26, 0.52, -0.92, 1.98, 1.57, 7.22, repro,
2006-02-01,-0.08, -1.12, -0.21, 1.99, 1.59, 7.33, repro,
2006-02-02,0.20, -0.55, 4.74, 2.00, 1.60, 7.37, repro,
2006-02-03,0.46, -0.94, 2.86, 1.98, 1.59, 7.31, repro,
2006-02-04,0.29, -1.17, 2.19, 2.00, 1.60, 7.41, repro,
2006-02-05,0.45, -0.35, -3.45, 2.00, 1.59, 7.34, repro,
2006-02-06,0.37, -0.23, -7.14, 2.03, 1.62, 7.48, repro,
2006-02-07,0.99, -0.43, -8.85, 1.96, 1.57, 7.29, repro,
2006-02-08,0.29, -0.07, -9.33, 1.98, 1.58, 7.36, repro,
2006-02-09,-0.61, -0.93, -5.08, 2.05, 1.59, 7.61, repro,
2006-02-10,0.26, -0.48, -9.94, 2.13, 1.61, 7.76, repro,
2006-02-11,0.16, -0.06, -9.72, 2.00, 1.58, 7.44, repro,
2006-02-12,0.62, 0.19, -10.62, 2.00, 1.56, 7.35, repro,
2006-02-13,-0.31, -0.39, -5.01, 2.01, 1.57, 7.37, repro,
2006-02-14,-0.93, -0.32, 0.24, 2.01, 1.62, 7.61, repro,
2006-02-15,-0.40, -0.13, 1.09, 1.98, 1.56, 7.34, repro,
2006-02-16,0.37, 0.39, -1.49, 2.00, 1.59, 7.43, repro,
2006-02-17,-0.15, -1.17, -3.02, 1.98, 1.58, 7.32, repro,
2006-02-18,-0.53, -0.04, -1.99, 2.00, 1.60, 7.44, repro,
2006-02-19,-1.69, -0.92, -3.88, 2.00, 1.58, 7.34, repro,
2006-02-20,0.41, 0.06, -3.38, 1.98, 1.56, 7.33, repro,
2006-02-21,1.58, 1.05, -0.13, 2.03, 1.67, 7.69, repro,
2006-02-22,0.19, 0.12, 5.69, 1.99, 1.57, 7.40, repro,
2006-02-23,1.20, 0.17, -2.44, 1.98, 1.58, 7.33, repro,
2006-02-24,0.00, 0.08, -0.99, 1.98, 1.59, 7.32, repro,
2006-02-25,-0.91, -0.84, -2.60, 2.01, 1.59, 7.37, repro,
2006-02-26,-0.26, -0.05, -3.65, 2.01, 1.63, 7.49, repro,
2006-02-27,-0.43, 0.79, 5.93, 2.02, 1.64, 7.58, repro,
2006-02-28,2.16, -0.58, -0.40, 2.12, 1.69, 7.80, repro,
2006-03-01,0.15, -0.65, -1.53, 2.08, 1.66, 7.57, repro,
2006-03-02,-0.06, -0.39, -2.62, 1.99, 1.60, 7.34, repro,
2006-03-03,-0.90, 0.95, -0.75, 2.07, 1.61, 7.68, repro,
2006-03-04,-0.79, 0.87, -1.27, 1.96, 1.60, 7.32, repro,
2006-03-05,-1.12, 0.15, -0.93, 1.97, 1.60, 7.36, repro,
2006-03-06,0.04, 1.42, -0.18, 1.97, 1.60, 7.37, repro,
2006-03-07,0.72, 0.56, 1.32, 2.00, 1.61, 7.46, repro,
2006-03-08,-0.01, -0.38, 2.03, 1.97, 1.60, 7.31, repro,
2006-03-09,0.28, -0.63, 7.02, 1.97, 1.60, 7.36, repro,
2006-03-10,-0.41, -0.34, 9.87, 1.98, 1.60, 7.34, repro,
2006-03-11,0.29, 0.73, 7.70, 1.99, 1.60, 7.39, repro,
2006-03-12,-0.14, -0.49, -0.03, 2.01, 1.61, 7.42, repro,
2006-03-13,-0.39, -0.51, -1.58, 2.02, 1.62, 7.43, repro,
2006-03-14,-1.14, 1.60, 0.32, 2.03, 1.62, 7.50, repro,
2006-03-15,-0.41, -0.04, -1.18, 2.00, 1.62, 7.41, repro,
2006-03-16,-1.80, -1.03, 0.74, 2.06, 1.65, 7.61, repro,
2006-03-17,-0.56, 0.68, -1.32, 2.06, 1.66, 7.57, repro,
2006-03-18,1.22, -0.71, 6.10, 2.04, 1.69, 7.62, repro,
2006-03-19,-1.45, -1.09, -0.12, 2.01, 1.64, 7.46, repro,
2006-03-20,-0.25, -1.51, 5.52, 1.99, 1.64, 7.41, repro,
2006-03-21,-0.36, -0.62, 3.45, 1.98, 1.63, 7.37, repro,
2006-03-22,-0.05, 0.09, -0.98, 1.98, 1.63, 7.45, repro,
2006-03-23,-0.81, 0.13, -2.40, 2.06, 1.66, 7.60, repro,
2006-03-24,-0.21, -0.44, -1.40, 2.05, 1.66, 7.58, repro,
2006-03-25,-1.24, -0.25, 7.96, 2.09, 1.69, 7.81, repro,
2006-03-26,-0.23, 0.35, 2.14, 2.04, 1.68, 7.69, repro,
2006-03-27,1.90, -1.58, 9.54, 2.06, 1.68, 7.69, repro,
2006-03-28,-0.97, -0.69, 4.41, 2.01, 1.69, 7.55, repro,
2006-03-29,0.22, -0.97, 10.34, 1.94, 1.61, 7.33, repro,
2006-03-30,0.32, -0.73, 4.29, 1.94, 1.61, 7.31, repro,
2006-03-31,0.41, -0.43, 1.74, 1.95, 1.62, 7.37, repro,
2006-04-01,1.18, -1.88, 1.65, 1.93, 1.61, 7.35, repro,
2006-04-02,-0.37, -1.87, -0.86, 1.94, 1.62, 7.36, repro,
2006-04-03,-0.72, -1.35, 11.60, 1.94, 1.61, 7.34, repro,
2006-04-04,0.98, -1.48, 8.00, 1.96, 1.61, 7.33, repro,
2006-04-05,0.09, -1.03, 10.36, 1.97, 1.67, 7.54, repro,
2006-04-06,0.86, -1.43, -0.17, 1.98, 1.66, 7.56, repro,
2006-04-07,-0.10, -1.27, -2.19, 2.03, 1.66, 7.61, repro,
2006-04-08,1.64, -2.78, -4.91, 2.12, 1.70, 7.96, repro,
2006-04-09,0.30, -1.54, 0.96, 1.94, 1.61, 7.37, repro,
2006-04-10,0.19, -0.90, 1.66, 1.93, 1.59, 7.25, repro,
2006-04-11,0.47, -1.40, 9.74, 2.00, 1.65, 7.67, repro,
2006-04-12,0.45, -1.42, 2.62, 2.00, 1.65, 7.68, repro,
2006-04-13,1.12, -1.61, 3.61, 1.93, 1.61, 7.36, repro,
2006-04-14,-0.14, -0.90, 3.57, 1.93, 1.61, 7.36, repro,
2006-04-15,-0.07, -0.35, 6.49, 1.98, 1.62, 7.38, repro,
2006-04-16,0.41, -0.95, 7.23, 1.94, 1.60, 7.32, repro,
2006-04-17,0.49, -0.87, 8.15, 1.95, 1.62, 7.41, repro,
2006-04-18,1.39, -1.33, 1.95, 1.95, 1.65, 7.56, repro,
2006-04-19,0.77, -1.18, 5.85, 1.93, 1.62, 7.41, repro,
2006-04-20,0.14, -1.09, 14.03, 1.96, 1.65, 7.50, repro,
2006-04-21,1.42, -1.43, 8.73, 1.94, 1.60, 7.32, repro,
2006-04-22,-0.40, -1.36, 6.67, 1.94, 1.60, 7.31, repro,
2006-04-23,0.50, -1.21, 5.79, 1.96, 1.65, 7.47, repro,
2006-04-24,1.13, -0.97, 4.47, 1.95, 1.66, 7.48, repro,
2006-04-25,0.56, -1.24, 4.03, 2.01, 1.73, 7.73, repro,
2006-04-26,0.21, 1.17, 5.42, 1.98, 1.66, 7.49, repro,
2006-04-27,-0.09, -1.08, 7.56, 2.03, 1.67, 7.58, repro,
2006-04-28,0.28, -0.86, 4.12, 2.00, 1.62, 7.44, repro,
2006-04-29,0.70, -1.53, 5.15, 1.94, 1.60, 7.35, repro,
2006-04-30,0.97, -0.54, 7.87, 1.94, 1.60, 7.33, repro,
2006-05-01,0.14, -1.57, 7.38, 1.94, 1.60, 7.32, repro,
2006-05-02,0.90, 0.21, 6.46, 1.94, 1.60, 7.33, repro,
2006-05-03,0.86, -0.77, 7.75, 1.94, 1.60, 7.34, repro,
2006-05-04,-0.41, -1.26, 10.73, 1.95, 1.61, 7.43, repro,
2006-05-05,2.04, -0.89, 7.97, 1.95, 1.61, 7.38, repro,
2006-05-06,0.00, -1.52, 9.47, 1.95, 1.61, 7.36, repro,
2006-05-07,1.14, -1.36, 6.18, 1.93, 1.60, 7.31, repro,
2006-05-08,0.63, -0.34, 7.35, 1.95, 1.61, 7.44, repro,
2006-05-09,-0.00, -0.54, 12.61, 2.02, 1.63, 7.59, repro,
2006-05-10,0.35, -1.31, 11.84, 1.95, 1.61, 7.42, repro,
2006-05-11,0.29, -1.77, 8.44, 1.94, 1.61, 7.36, repro,
2006-05-12,-0.42, -1.35, 6.29, 1.92, 1.59, 7.26, repro,
2006-05-13,-0.22, 0.32, 9.03, 1.95, 1.61, 7.41, repro,
2006-05-14,-0.23, -0.99, 4.51, 1.95, 1.61, 7.41, repro,
2006-05-15,0.52, -2.26, 3.90, 1.94, 1.61, 7.39, repro,
2006-05-16,0.05, -1.02, 3.63, 1.97, 1.66, 7.50, repro,
2006-05-17,0.24, -0.74, 9.75, 1.98, 1.66, 7.57, repro,
2006-05-18,-0.70, -1.54, 16.63, 1.99, 1.64, 7.49, repro,
2006-05-19,1.84, -1.31, 9.12, 2.04, 1.65, 7.69, repro,
2006-05-20,-1.86, -4.04, 19.32, 2.04, 1.67, 7.74, repro,
2006-05-21,-2.50, -1.66, 20.40, 2.09, 1.67, 7.79, repro,
2006-05-22,-0.60, -2.83, 17.65, 2.01, 1.62, 7.49, repro,
2006-05-23,-0.48, -1.63, 4.95, 2.01, 1.62, 7.45, repro,
2006-05-24,-0.20, -1.59, 7.26, 2.01, 1.62, 7.50, repro,
2006-05-25,1.77, -1.71, 9.01, 2.15, 1.70, 7.99, repro,
2006-05-26,0.21, -1.60, 14.40, 2.09, 1.65, 7.74, repro,
2006-05-27,-0.33, -0.78, 14.24, 2.03, 1.63, 7.54, repro,
2006-05-28,0.42, -0.26, 13.33, 2.02, 1.63, 7.48, repro,
2006-05-29,-0.58, -0.49, 9.16, 2.05, 1.66, 7.62, repro,
2006-05-30,0.50, -0.50, 7.70, 2.08, 1.67, 7.73, repro,
2006-05-31,0.77, 0.07, 8.05, 2.10, 1.71, 7.87, repro,
2006-06-01,0.20, -1.78, 7.31, 2.05, 1.66, 7.65, repro,
2006-06-02,-0.14, -1.60, 10.11, 2.13, 1.71, 7.87, repro,
2006-06-03,-1.34, -1.60, 12.44, 2.09, 1.68, 7.74, repro,
2006-06-04,-1.29, -1.06, 15.86, 2.12, 1.69, 7.85, repro,
2006-06-05,0.81, -0.66, 14.70, 2.07, 1.66, 7.73, repro,
2006-06-06,0.03, -1.02, 11.08, 2.07, 1.65, 7.69, repro,
2006-06-07,1.20, 0.16, 16.09, 2.07, 1.65, 7.64, repro,
2006-06-08,-1.36, -1.21, 8.84, 2.01, 1.63, 7.50, repro,
2006-06-09,-1.80, -2.27, 12.14, 2.09, 1.69, 7.75, repro,
2006-06-10,-0.06, -0.93, 7.83, 2.03, 1.64, 7.57, repro,
2006-06-11,-1.09, -0.68, 13.74, 2.04, 1.66, 7.64, repro,
2006-06-12,1.16, -2.32, 16.10, 2.05, 1.65, 7.65, repro,
2006-06-13,0.57, -1.40, 14.59, 2.06, 1.64, 7.59, repro,
2006-06-14,0.14, -2.00, 12.14, 2.01, 1.62, 7.47, repro,
2006-06-15,0.95, -1.23, 18.55, 2.03, 1.64, 7.62, repro,
2006-06-16,1.27, -1.54, 18.46, 2.03, 1.64, 7.60, repro,
2006-06-17,1.14, 0.09, 12.68, 2.01, 1.62, 7.47, repro,
2006-06-18,-0.68, -1.30, 19.28, 2.04, 1.66, 7.70, repro,
2006-06-19,-0.29, -2.01, 13.30, 2.04, 1.67, 7.76, repro,
2006-06-20,-0.37, -2.44, 18.16, 2.04, 1.68, 7.77, repro,
2006-06-21,-0.14, 0.14, 7.03, 2.04, 1.67, 7.78, repro,
2006-06-22,-0.28, -0.47, 21.27, 2.03, 1.67, 7.72, repro,
2006-06-23,1.50, -2.11, 11.56, 2.04, 1.66, 7.67, repro,
2006-06-24,0.71, -0.55, 15.36, 2.05, 1.67, 7.76, repro,
2006-06-25,-0.64, -1.69, 12.63, 2.05, 1.68, 7.77, repro,
2006-06-26,-0.15, -0.07, 11.74, 2.05, 1.69, 7.80, repro,
2006-06-27,0.26, -1.86, 17.08, 2.11, 1.76, 7.99, repro,
2006-06-28,0.48, -3.63, 19.20, 2.03, 1.67, 7.76, repro,
2006-06-29,0.24, -2.10, 17.64, 1.98, 1.65, 7.58, repro,
2006-06-30,0.10, -1.58, 13.38, 2.05, 1.68, 7.82, repro,
2006-07-01,-0.39, -1.78, 12.06, 2.01, 1.65, 7.70, repro,
2006-07-02,-0.05, 0.32, 13.51, 2.02, 1.68, 7.76, repro,
2006-07-03,0.55, -1.68, 9.04, 2.00, 1.64, 7.65, repro,
2006-07-04,0.18, -1.07, 16.45, 2.01, 1.64, 7.66, repro,
2006-07-05,-0.48, -0.29, 12.97, 2.03, 1.64, 7.69, repro,
2006-07-06,0.83, -0.50, 5.66, 2.01, 1.62, 7.61, repro,
2006-07-07,-0.72, -0.42, 9.11, 1.99, 1.63, 7.64, repro,
2006-07-08,0.01, -1.01, 13.05, 2.00, 1.63, 7.66, repro,
2006-07-09,0.49, -2.89, 7.96, 2.01, 1.63, 7.64, repro,
2006-07-10,-1.17, -1.39, 12.02, 2.03, 1.63, 7.69, repro,
2006-07-11,0.10, -1.93, 20.94, 2.03, 1.64, 7.75, repro,
2006-07-12,-1.65, -2.75, 9.98, 2.05, 1.69, 7.81, repro,
2006-07-13,-1.16, -0.43, 12.50, 2.00, 1.63, 7.67, repro,
2006-07-14,0.12, -1.46, 14.69, 2.01, 1.64, 7.73, repro,
2006-07-15,1.70, -1.30, 16.52, 2.02, 1.64, 7.74, repro,
2006-07-16,0.77, -0.68, 8.94, 2.01, 1.64, 7.72, repro,
2006-07-17,-1.41, -1.17, 17.27, 2.09, 1.75, 8.10, repro,
2006-07-18,0.47, -2.03, 21.33, 1.96, 1.61, 7.46, repro,
2006-07-19,-0.28, -1.50, 20.16, 1.94, 1.62, 7.49, repro,
2006-07-20,0.25, -1.11, 16.41, 1.96, 1.62, 7.46, repro,
2006-07-21,0.94, -0.18, 5.86, 1.96, 1.61, 7.43, repro,
2006-07-22,1.63, -0.82, 18.45, 1.95, 1.61, 7.40, repro,
2006-07-23,-0.98, -2.09, 18.27, 1.96, 1.62, 7.46, repro,
2006-07-24,1.87, -0.57, 12.61, 1.93, 1.60, 7.36, repro,
2006-07-25,0.77, -1.19, 18.99, 1.99, 1.67, 7.59, repro,
2006-07-26,0.71, -3.35, 15.90, 1.99, 1.67, 7.57, repro,
2006-07-27,0.75, -1.06, 12.32, 1.96, 1.61, 7.40, repro,
2006-07-28,0.32, 0.12, 19.30, 1.96, 1.60, 7.36, repro,
2006-07-29,0.54, -3.16, 12.08, 1.99, 1.67, 7.63, repro,
2006-07-30,-0.85, -0.77, 17.60, 2.00, 1.68, 7.67, repro,
2006-07-31,0.64, -0.62, 14.72, 1.95, 1.61, 7.43, repro,
2006-08-01,1.02, -1.10, 21.37, 1.96, 1.62, 7.42, repro,
2006-08-02,0.09, 0.61, 16.15, 1.98, 1.66, 7.69, repro,
2006-08-03,-0.24, -0.51, 13.21, 2.02, 1.70, 7.77, repro,
2006-08-04,0.04, -1.02, 9.36, 2.05, 1.69, 7.89, repro,
2006-08-05,-0.16, -0.96, 11.43, 2.03, 1.72, 7.92, repro,
2006-08-06,0.85, -1.48, 13.24, 1.99, 1.66, 7.66, repro,
2006-08-07,0.30, -1.20, 11.39, 2.00, 1.67, 7.74, repro,
2006-08-08,0.30, -1.57, 5.66, 1.94, 1.61, 7.37, repro,
2006-08-09,0.67, -0.08, 11.61, 2.01, 1.68, 7.66, repro,
2006-08-10,0.27, -0.91, 11.97, 1.96, 1.62, 7.45, repro,
2006-08-11,0.35, -0.65, 14.84, 1.95, 1.62, 7.41, repro,
2006-08-12,0.27, -2.42, 13.31, 1.96, 1.62, 7.43, repro,
2006-08-13,-0.48, -1.47, 11.87, 1.98, 1.67, 7.54, repro,
2006-08-14,0.49, -0.88, 18.38, 2.00, 1.68, 7.63, repro,
2006-08-15,-0.24, -0.04, 18.69, 2.07, 1.70, 7.80, repro,
2006-08-16,-0.26, -0.04, 8.23, 1.99, 1.67, 7.55, repro,
2006-08-17,1.42, -1.61, 17.96, 2.07, 1.69, 7.70, repro,
2006-08-18,0.42, -0.52, 13.56, 1.99, 1.71, 7.63, repro,
2006-08-19,-0.89, -1.51, 12.26, 1.93, 1.61, 7.34, repro,
2006-08-20,0.84, -0.57, 15.55, 1.95, 1.63, 7.46, repro,
2006-08-21,0.93, -0.90, 10.76, 1.95, 1.64, 7.43, repro,
2006-08-22,0.63, -1.14, 10.46, 1.98, 1.64, 7.52, repro,
2006-08-23,-1.39, 0.77, 21.19, 2.00, 1.70, 7.61, repro,
2006-08-24,-0.70, -1.66, 14.65, 1.95, 1.65, 7.43, repro,
2006-08-25,-0.98, -0.34, 19.06, 1.98, 1.69, 7.68, repro,
2006-08-26,1.26, -0.49, 16.30, 2.02, 1.71, 7.82, repro,
2006-08-27,0.88, 0.18, 12.21, 2.02, 1.73, 7.84, repro,
2006-08-28,0.52, -0.92, 14.57, 2.02, 1.72, 7.83, repro,
2006-08-29,-0.00, -0.21, 18.74, 2.03, 1.74, 7.94, repro,
2006-08-30,-0.01, -1.63, 16.09, 2.08, 1.75, 8.06, repro,
2006-08-31,-0.30, 0.20, 8.66, 2.02, 1.74, 7.89, repro,
2006-09-01,0.94, -1.35, 10.66, 2.07, 1.75, 8.00, repro,
2006-09-02,1.20, -0.53, 9.37, 2.02, 1.74, 7.87, repro,
2006-09-03,0.20, -0.91, 13.87, 2.02, 1.74, 7.93, repro,
2006-09-04,0.44, -1.12, 2.69, 2.07, 1.76, 8.02, repro,
2006-09-05,-0.92, 0.56, 6.93, 2.42, 2.11, 9.34, repro,
2006-09-06,1.02, 0.52, 6.64, 2.02, 1.73, 7.85, repro,
2006-09-07,-0.36, -1.37, 18.03, 2.07, 1.78, 8.07, repro,
2006-09-08,0.66, -1.09, 15.06, 2.06, 1.77, 8.01, repro,
2006-09-09,-0.59, -2.49, 10.70, 1.98, 1.68, 7.56, repro,
2006-09-10,0.43, -0.71, 9.79, 1.98, 1.69, 7.61, repro,
2006-09-11,-0.54, -0.54, 11.43, 1.99, 1.70, 7.67, repro,
2006-09-12,1.14, -0.94, 14.17, 1.99, 1.69, 7.62, repro,
2006-09-13,1.62, -0.23, 16.21, 1.99, 1.68, 7.58, repro,
2006-09-14,-0.61, -0.63, 23.43, 2.09, 1.77, 7.89, repro,
2006-09-15,-1.65, 0.24, 12.09, 2.03, 1.69, 7.74, repro,
2006-09-16,0.30, -1.35, 17.94, 1.97, 1.65, 7.52, repro,
2006-09-17,0.01, -0.09, 15.84, 1.95, 1.65, 7.45, repro,
2006-09-18,0.65, -0.64, 16.74, 1.97, 1.65, 7.50, repro,
2006-09-19,0.44, -1.20, 16.14, 1.96, 1.64, 7.43, repro,
2006-09-20,-0.14, -2.43, 16.26, 1.95, 1.64, 7.45, repro,
2006-09-21,-1.48, -1.61, 17.04, 1.98, 1.68, 7.61, repro,
2006-09-22,0.40, -0.85, 20.00, 2.05, 1.74, 7.90, repro,
2006-09-23,0.85, -1.43, 16.34, 1.99, 1.67, 7.59, repro,
2006-09-24,1.71, -1.13, 7.52, 2.07, 1.70, 7.75, repro,
2006-09-25,1.00, -0.77, 13.44, 2.10, 1.73, 7.97, repro,
2006-09-26,-0.60, -0.72, 10.68, 2.01, 1.66, 7.55, repro,
2006-09-27,-0.20, -0.99, 11.49, 2.02, 1.68, 7.65, repro,
2006-09-28,-0.07, -0.46, 14.57, 2.05, 1.72, 7.75, repro,
2006-09-29,-1.71, -0.53, 22.22, 2.03, 1.68, 7.69, repro,
2006-09-30,1.22, -1.56, 23.71, 2.01, 1.68, 7.69, repro,
2006-10-01,0.14, -0.62, 18.02, 1.98, 1.65, 7.54, repro,
2006-10-02,0.69, -0.69, 12.63, 2.06, 1.79, 7.89, repro,
2006-10-03,-0.62, 0.07, 8.68, 2.12, 1.80, 8.00, repro,
2006-10-04,0.38, -1.93, 20.69, 2.04, 1.69, 7.71, repro,
2006-10-05,0.47, -1.30, 16.81, 2.00, 1.66, 7.61, repro,
2006-10-06,-1.04, -1.57, 11.66, 2.03, 1.68, 7.82, repro,
2006-10-07,-0.46, -1.38, 6.69, 2.04, 1.73, 7.98, repro,
2006-10-08,0.55, -0.47, 9.89, 2.06, 1.75, 8.08, repro,
2006-10-09,-0.09, -0.91, 12.01, 2.08, 1.76, 8.11, repro,
2006-10-10,-1.78, -1.24, 8.16, 2.03, 1.70, 7.83, repro,
2006-10-11,-0.60, -1.60, 19.69, 2.02, 1.70, 7.81, repro,
2006-10-12,-0.48, -1.19, 18.10, 2.00, 1.67, 7.62, repro,
2006-10-13,-3.02, -0.53, 17.50, 1.97, 1.71, 7.77, repro,
2006-10-14,-0.93, -1.19, 11.42, 2.00, 1.71, 7.84, repro,
2006-10-15,-0.89, -1.19, 20.24, 1.98, 1.69, 7.70, repro,
2006-10-16,0.14, -0.95, 24.59, 2.00, 1.66, 7.63, repro,
2006-10-17,-2.24, -1.25, 17.73, 1.99, 1.72, 7.85, repro,
2006-10-18,-0.16, -0.12, 16.36, 1.98, 1.76, 7.87, repro,
2006-10-19,0.29, -0.34, 10.89, 2.18, 1.78, 8.50, repro,
2006-10-20,-0.47, -1.36, 16.80, 2.23, 1.92, 9.23, repro,
2006-10-21,-0.44, -1.46, 10.15, 2.17, 1.81, 8.57, repro,
2006-10-22,-0.26, -1.34, 12.55, 1.97, 1.72, 7.73, repro,
2006-10-23,-0.58, -1.49, 9.13, 2.06, 1.85, 8.28, repro,
2006-10-24,-0.64, -1.28, 16.05, 2.12, 1.77, 8.31, repro,
2006-10-25,-1.51, -1.88, 22.13, 2.03, 1.77, 7.89, repro,
2006-10-26,0.21, -1.13, 14.57, 2.00, 1.74, 7.80, repro,
2006-10-27,0.09, -1.06, 10.15, 1.95, 1.69, 7.64, repro,
2006-10-28,-0.60, -1.31, 13.21, 2.14, 1.81, 8.49, repro,
2006-10-29,-1.26, -0.78, 14.65, 1.95, 1.68, 7.57, repro,
2006-10-30,-1.73, -0.56, 16.03, 1.94, 1.70, 7.62, repro,
2006-10-31,-1.34, -1.18, 15.87, 1.99, 1.72, 7.77, repro,
2006-11-01,-0.15, -1.88, 15.81, 2.00, 1.73, 7.80, repro,
2006-11-02,0.51, -1.34, 13.15, 1.97, 1.69, 7.64, repro,
2006-11-03,-0.94, -0.72, 18.99, 1.98, 1.73, 7.75, repro,
2006-11-04,-0.61, -0.07, 11.42, 2.01, 1.73, 7.83, repro,
2006-11-05,-0.25, -0.82, 14.41, 2.00, 1.72, 7.77, repro,
2006-11-06,0.28, -1.93, 9.65, 1.92, 1.66, 7.50, repro,
2006-11-07,-0.28, -0.40, 10.57, 2.06, 1.80, 8.16, repro,
2006-11-08,-0.60, -2.07, 18.47, 2.02, 1.73, 7.92, repro,
2006-11-09,-0.51, -1.06, 17.61, 2.07, 1.81, 8.26, repro,
2006-11-10,-1.02, -0.43, 14.37, 2.01, 1.72, 7.86, repro,
2006-11-11,-0.32, -0.09, 10.93, 2.03, 1.72, 7.94, repro,
2006-11-12,-1.59, -1.29, 11.31, 2.05, 1.79, 7.99, repro,
2006-11-13,-0.56, -1.50, 12.83, 2.04, 1.72, 7.80, repro,
2006-11-14,-0.81, -3.07, 20.30, 1.93, 1.65, 7.52, repro,
2006-11-15,-0.18, -1.49, 12.45, 1.92, 1.65, 7.44, repro,
2006-11-16,-0.73, -0.00, 14.91, 1.91, 1.64, 7.41, repro,
2006-11-17,-1.21, -0.51, 12.13, 1.91, 1.64, 7.36, repro,
2006-11-18,-0.28, -1.07, 9.06, 1.90, 1.64, 7.34, repro,
2006-11-19,-0.47, -2.07, 6.17, 1.92, 1.65, 7.42, repro,
2006-11-20,-1.10, -0.58, 8.12, 1.93, 1.65, 7.44, repro,
2006-11-21,-0.41, -0.90, 16.18, 1.92, 1.64, 7.40, repro,
2006-11-22,-0.98, -0.48, 9.51, 1.91, 1.64, 7.41, repro,
2006-11-23,-0.65, -0.84, 7.04, 1.97, 1.75, 7.69, repro,
2006-11-24,0.01, -1.80, 12.96, 2.00, 1.72, 7.72, repro,
2006-11-25,-0.85, -1.91, 13.55, 1.96, 1.67, 7.54, repro,
2006-11-26,-1.06, -0.71, 11.57, 1.95, 1.66, 7.50, repro,
2006-11-27,0.17, -0.88, 15.06, 1.96, 1.67, 7.57, repro,
2006-11-28,-2.23, -2.00, 10.60, 1.91, 1.65, 7.40, repro,
2006-11-29,-0.77, -1.50, 7.99, 1.91, 1.64, 7.34, repro,
2006-11-30,-0.49, -1.36, 7.31, 1.93, 1.66, 7.44, repro,
2006-12-01,-0.97, -0.91, 3.90, 1.92, 1.65, 7.43, repro,
2006-12-02,-0.83, -1.24, 4.30, 1.93, 1.66, 7.46, repro,
2006-12-03,-1.18, -0.84, 7.77, 1.92, 1.66, 7.41, repro,
2006-12-04,0.33, -1.76, 0.67, 1.96, 1.66, 7.48, repro,
2006-12-05,-0.35, -1.29, 4.96, 1.99, 1.78, 7.67, repro,
2006-12-06,-0.15, -2.02, 9.79, 2.02, 1.81, 7.84, repro,
2006-12-07,-0.06, -1.17, 9.15, 1.96, 1.74, 7.61, repro,
2006-12-08,-1.55, -1.88, 12.16, 1.95, 1.73, 7.58, repro,
2006-12-09,0.63, -2.42, 8.36, 1.97, 1.74, 7.64, repro,
2006-12-10,0.30, -3.45, 7.81, 2.00, 1.77, 7.79, repro,
2006-12-11,-0.51, -2.14, 10.21, 1.92, 1.68, 7.48, repro,
2006-12-12,-0.30, -1.44, 7.76, 1.98, 1.74, 7.66, repro,
2006-12-13,0.25, -1.83, 3.95, 1.92, 1.69, 7.52, repro,
2006-12-14,0.03, -2.39, 13.70, 1.92, 1.69, 7.47, repro,
2006-12-15,-0.22, -2.16, 6.71, 2.01, 1.78, 7.88, repro,
2006-12-16,-0.61, -3.97, 13.23, 1.99, 1.76, 7.72, repro,
2006-12-17,-0.47, -1.45, 13.25, 2.03, 1.83, 8.09, repro,
2006-12-18,-0.03, -1.52, 9.37, 2.08, 1.89, 8.35, repro,
2006-12-19,0.26, -1.71, 8.48, 2.03, 1.86, 7.99, repro,
2006-12-20,-0.26, -2.62, 3.20, 1.97, 1.82, 7.69, repro,
2006-12-21,-1.15, -2.73, 1.48, 1.93, 1.80, 7.58, repro,
2006-12-22,-0.63, -1.64, 9.30, 2.09, 2.01, 8.46, repro,
2006-12-23,0.26, -0.73, 9.93, 2.00, 1.78, 7.94, repro,
2006-12-24,-0.15, -0.43, 9.97, 1.91, 1.68, 7.44, repro,
2006-12-25,-0.40, -1.39, 3.76, 1.98, 1.82, 7.72, repro,
2006-12-26,0.05, -2.57, 4.26, 2.01, 1.78, 7.98, repro,
2006-12-27,-1.47, -2.16, 12.26, 1.99, 1.79, 7.86, repro,
2006-12-28,0.44, -1.99, 13.35, 2.17, 2.03, 8.69, repro,
2006-12-29,1.18, -2.51, 3.86, 2.05, 1.84, 8.02, repro,
2006-12-30,0.80, -1.12, 7.02, 1.99, 1.78, 7.79, repro,
2006-12-31,-0.06, -1.64, 7.13, 2.14, 1.93, 8.62, repro,
2007-01-01,-0.22, -2.58, 3.22, 2.06, 1.89, 8.18, repro,
2007-01-02,-0.70, -2.07, 10.93, 2.10, 1.96, 8.40, repro,
2007-01-03,0.61, -1.72, 14.29, 1.90, 1.72, 7.59, repro,
2007-01-04,-0.34, -4.05, 17.73, 1.93, 1.72, 7.63, repro,
2007-01-05,0.59, -2.91, 8.88, 1.94, 1.76, 7.67, repro,
2007-01-06,0.40, -2.02, 2.13, 1.94, 1.75, 7.61, repro,
2007-01-07,-0.06, -1.12, 3.81, 1.94, 1.68, 7.46, repro,
2007-01-08,0.15, -1.60, 5.61, 1.97, 1.75, 7.66, repro,
2007-01-09,0.12, -2.15, 5.28, 1.95, 1.70, 7.46, repro,
2007-01-10,-0.51, -1.61, 9.08, 1.99, 1.73, 7.56, repro,
2007-01-11,-1.16, -2.52, 14.00, 2.01, 1.69, 7.62, repro,
2007-01-12,-0.89, -1.73, 7.04, 1.92, 1.63, 7.35, repro,
2007-01-13,-0.23, -1.17, 1.85, 1.89, 1.63, 7.24, repro,
2007-01-14,0.14, -1.49, 0.90, 1.88, 1.62, 7.18, repro,
2007-01-15,0.13, -1.40, 0.83, 1.89, 1.63, 7.25, repro,
2007-01-16,-0.55, -1.54, 2.53, 1.92, 1.63, 7.27, repro,
2007-01-17,0.12, -1.88, 5.24, 1.92, 1.67, 7.37, repro,
2007-01-18,0.41, -1.92, 0.15, 1.95, 1.74, 7.59, repro,
2007-01-19,0.03, -1.70, 3.11, 1.94, 1.64, 7.49, repro,
2007-01-20,0.33, -1.80, 6.85, 1.93, 1.65, 7.46, repro,
2007-01-21,-0.55, -1.24, 7.08, 1.90, 1.64, 7.26, repro,
2007-01-22,0.05, -1.17, 2.93, 1.90, 1.66, 7.32, repro,
2007-01-23,0.07, -1.36, 2.77, 1.88, 1.63, 7.18, repro,
2007-01-24,-0.32, -1.76, 2.97, 1.90, 1.63, 7.24, repro,
2007-01-25,-0.69, -2.33, -2.36, 1.93, 1.66, 7.27, repro,
2007-01-26,-1.00, -1.40, 6.33, 1.87, 1.62, 7.09, repro,
2007-01-27,-2.05, -1.91, 5.85, 1.89, 1.61, 7.08, repro,
2007-01-28,-0.60, -1.29, 3.79, 1.91, 1.65, 7.20, repro,
2007-01-29,-1.57, -0.90, 5.45, 1.90, 1.63, 7.20, repro,
2007-01-30,-0.19, -1.39, 7.07, 1.88, 1.62, 7.13, repro,
2007-01-31,-1.00, -1.71, 9.28, 1.87, 1.62, 7.10, repro,
2007-02-01,-1.81, -0.17, 8.25, 1.89, 1.66, 7.24, repro,
2007-02-02,-1.48, -0.93, 6.51, 1.90, 1.62, 7.21, repro,
2007-02-03,-1.07, -0.97, 4.85, 1.93, 1.64, 7.32, repro,
2007-02-04,0.11, -1.21, 1.23, 1.89, 1.62, 7.17, repro,
2007-02-05,-0.81, -1.16, 3.17, 1.88, 1.61, 7.13, repro,
2007-02-06,-0.89, -1.32, 2.15, 1.91, 1.63, 7.21, repro,
2007-02-07,-0.27, -1.54, 2.84, 1.89, 1.63, 7.21, repro,
2007-02-08,-0.74, -1.09, 3.51, 1.96, 1.69, 7.48, repro,
2007-02-09,-1.22, 0.24, 8.34, 1.92, 1.68, 7.37, repro,